[[{"header":{"parameterUnit":"m.s-1","parameterCategory":1,"la1":30.2991,"la2":30.254,"lo1":-89.0895,"lo2":-89.0444,"dy":0.0017,"dx":0.0017,"nx":28,"ny":28,"refTime":"2024-05-12T09:00:00:Z","depth":0,"parameterNumber":2,"parameterNumberName":"U-component_of_WINDS"},"data":[0,0,0,0,0,0,0,0,0,0,0,0,0,0,0,0,0,0,0,0,0,0,0,0,0,0,0,0,0,0,0,0,0,0,0,0,0,0,0,0,0,0,0,0,0,0,0,0,0,0,0,0,0,0,0,0,0,0,-1.2782,-1.2783,0,-1.2902,-1.2904,-1.2905,-1.2997,-1.2998,-1.2999,-1.3,-1.3123,-1.3125,-1.3127,0,0,0,0,0,0,0,0,0,0,0,0,0,-1.263,-1.2632,-1.2781,-1.2783,-1.2784,-1.2902,-1.2904,-1.2905,-1.2997,-1.2998,-1.2999,-1.3,-1.3122,-1.3125,-1.3128,0,0,0,0,0,0,0,0,0,0,0,0,0,-1.2718,-1.2633,-1.2781,-1.2844,-1.2851,-1.2902,-1.2904,-1.2906,-1.2997,-1.2998,-1.2999,-1.3001,-1.3121,-1.3124,-1.3128,-1.3125,0,0,-1.3139,-1.3141,0,0,0,0,0,0,0,0,-1.2713,-1.2723,-1.2834,-1.284,-1.2848,-1.2936,-1.2896,-1.2979,-1.2997,-1.2942,-1.3,-1.3001,-1.3059,-1.3068,-1.3088,-1.3131,-1.3136,-1.314,-1.3142,-1.3143,-1.3145,0,0,0,0,0,0,0,-1.2706,-1.2718,-1.2829,-1.2835,-1.2844,-1.2867,-1.2881,-1.2912,-1.2992,-1.2946,-1.2953,-1.2966,-1.3064,-1.3084,-1.3092,-1.3138,-1.314,-1.3143,-1.3145,-1.3147,-1.3185,-1.3183,0,0,0,0,0,0,-1.2691,-1.2713,-1.2825,-1.2833,-1.2782,-1.2868,-1.2884,-1.2906,-1.2992,-1.3006,-1.2965,-1.297,-1.3077,-1.3087,-1.3096,-1.3098,-1.3143,-1.3147,-1.3149,-1.3186,-1.3184,-1.3183,0,0,0,0,0,0,-1.2687,-1.27,-1.2821,-1.2775,-1.2792,-1.287,-1.2894,-1.2908,-1.2929,-1.3006,-1.3021,-1.2972,-1.3079,-1.3091,-1.3117,-1.3104,-1.3149,-1.3152,-1.3187,-1.3185,-1.3184,-1.3102,0,0,0,0,0,0,-1.2682,-1.2698,-1.2698,-1.2774,-1.2794,-1.2839,-1.2893,-1.291,-1.2935,-1.2943,-1.3016,-1.3029,-1.3081,-1.3111,-1.3121,-1.311,-1.3155,-1.3189,-1.3186,-1.3184,-1.3106,-1.3098,-1.309,0,0,0,0,0,-1.2676,-1.267,-1.2697,-1.271,-1.2795,-1.2838,-1.285,-1.2909,-1.2934,-1.2934,-1.2984,-1.3027,-1.3104,-1.3113,-1.3125,-1.3115,-1.319,-1.3187,-1.3184,-1.311,-1.3099,-1.3091,0,0,0,0,0,0,-1.2589,-1.2681,-1.2712,-1.273,-1.2776,-1.2854,-1.2856,-1.2896,-1.2936,-1.2942,-1.3014,-1.303,-1.3048,-1.3084,-1.3093,-1.3116,-1.3152,-1.3152,-1.3092,-1.3083,-1.3075,-1.3065,-1.3158,0,0,0,0,0,-1.2572,-1.26,-1.2678,-1.2686,-1.2708,-1.2778,-1.2799,-1.2841,-1.2891,-1.2911,-1.2962,-1.3009,-1.3044,-1.3066,-1.3102,-1.3112,-1.3129,-1.3111,-1.3103,-1.3096,-1.3095,-1.3103,-1.3095,-1.3174,-1.3174,-1.3174,0,0,-1.2537,-1.259,-1.2603,-1.267,-1.2711,-1.2737,-1.2793,-1.2819,-1.284,-1.2915,-1.2943,-1.2982,-1.3039,-1.3057,-1.3068,-1.3088,-1.3077,-1.3093,-1.3087,-1.3089,-1.3099,-1.3092,-1.3085,-1.3172,-1.3173,-1.3173,0,0,-1.2486,-1.253,-1.2541,-1.2581,-1.2641,-1.2688,-1.269,-1.2763,-1.2792,-1.2821,-1.2878,-1.2903,-1.2962,-1.3,-1.3027,-1.2991,-1.3033,-1.3001,-1.2959,-1.2966,-1.296,-1.2955,-1.2942,-1.2936,-1.3,-1.3,-1.2999,0,-1.2435,-1.2478,-1.2542,-1.2564,-1.2592,-1.2662,-1.2674,-1.2709,-1.2778,-1.2795,-1.2817,-1.2892,-1.2935,-1.2963,-1.2955,-1.2975,-1.298,-1.2993,-1.2956,-1.2951,-1.2948,-1.2936,-1.2931,-1.2995,-1.2996,-1.2996,-1.2997,0,-1.2411,-1.244,-1.2442,-1.2507,-1.2535,-1.2552,-1.2619,-1.2639,-1.2679,-1.2723,-1.2752,-1.2807,-1.2855,-1.2865,-1.2904,-1.2899,-1.2909,-1.2942,-1.298,-1.2935,-1.2925,-1.2921,-1.2989,-1.2991,-1.2992,-1.2993,0,0,-1.2309,-1.2409,-1.2409,-1.2439,-1.2511,-1.2534,-1.2555,-1.2602,-1.2618,-1.2664,-1.2683,-1.2731,-1.2762,-1.2793,-1.2837,-1.2843,-1.281,-1.2876,-1.2878,-1.2861,-1.2808,-1.2782,-1.2775,-1.2839,-1.2838,-1.2838,-1.2803,0,-1.2269,-1.2309,-1.2368,-1.2388,-1.2415,-1.2482,-1.25,-1.2545,-1.2587,-1.2617,-1.2663,-1.2696,-1.2735,-1.2754,-1.2763,-1.2812,-1.2801,-1.2816,-1.2856,-1.2857,-1.2839,-1.277,-1.2743,-1.2708,-1.2799,-1.2799,-1.2798,0,-1.2228,-1.227,-1.2293,-1.2363,-1.2376,-1.2391,-1.244,-1.2467,-1.252,-1.255,-1.2584,-1.2632,-1.2657,-1.2691,-1.2726,-1.2735,-1.2755,-1.2782,-1.2782,-1.2788,-1.2824,-1.2773,-1.2698,-1.2692,-1.2793,-1.2793,-1.2794,0,-1.215,-1.2212,-1.2234,-1.2258,-1.234,-1.2349,-1.2384,-1.2439,-1.2463,-1.2506,-1.2523,-1.2567,-1.2591,-1.2625,-1.2683,-1.2703,-1.2712,-1.2751,-1.2737,-1.2735,-1.2735,-1.2734,-1.2661,-1.2749,-1.2749,-1.2749,-1.2749,0,-1.21,-1.2111,-1.22,-1.2214,-1.2229,-1.2296,-1.2309,-1.2349,-1.2398,-1.242,-1.248,-1.25,-1.2576,-1.2605,-1.2651,-1.2673,-1.2683,-1.2708,-1.272,-1.2702,-1.2699,-1.2716,-1.272,-1.2748,-1.2748,-1.2748,-1.2749,0,-1.2015,-1.2076,-1.2104,-1.2179,-1.2198,-1.2206,-1.227,-1.2286,-1.2331,-1.2359,-1.2369,-1.2441,-1.2478,-1.2539,-1.2594,-1.2625,-1.2638,-1.2659,-1.262,-1.2627,-1.2609,-1.261,-1.2544,-1.2538,-1.2629,-1.2628,-1.2628,0,-1.1979,-1.1989,-1.2065,-1.2085,-1.2117,-1.2147,-1.2173,-1.224,-1.2264,-1.2326,-1.2333,-1.2375,-1.2412,-1.2468,-1.2524,-1.2567,-1.2588,-1.2562,-1.2595,-1.2577,-1.2587,-1.2586,-1.2587,-1.2554,-1.2553,-1.2552,-1.2551,0,-1.1907,-1.1937,-1.1971,-1.2016,-1.2045,-1.2084,-1.2126,-1.2138,-1.2214,-1.2238,-1.2277,-1.2305,-1.2361,-1.2401,-1.2452,-1.2488,-1.2532,-1.2541,-1.254,-1.2521,-1.2498,-1.251,-1.2598,-1.2542,-1.2543,-1.2543,-1.2544,-1.2544,-1.1846,-1.1858,-1.1913,-1.195,-1.1988,-1.2026,-1.2044,-1.2092,-1.2125,-1.2175,-1.2213,-1.2248,-1.2302,-1.2374,-1.2407,-1.2436,-1.2456,-1.2455,-1.2454,-1.2453,-1.2445,-1.2494,-1.2446,-1.2446,-1.2446,-1.2447,-1.2447,0,-1.1777,-1.1816,-1.1849,-1.1905,-1.1934,-1.1973,-1.2022,-1.2043,-1.2073,-1.212,-1.2154,-1.2198,-1.2238,-1.2297,-1.2342,-1.2353,-1.2374,-1.2362,-1.2362,-1.2369,-1.2425,-1.2422,-1.2344,-1.2344,-1.2344,-1.2344,-1.2344,-1.2344,-1.1745,-1.1767,-1.1803,-1.1845,-1.1884,-1.1919,-1.1943,-1.1978,-1.2015,-1.2061,-1.2095,-1.2133,-1.2185,-1.2233,-1.2271,-1.2288,-1.2301,-1.2282,-1.2305,-1.2356,-1.2365,-1.2374,-1.2371,-1.2285,-1.2285,-1.2247,-1.2246,-1.2246]},{"header":{"parameterUnit":"m.s-1","parameterCategory":1,"la1":30.2991,"la2":30.254,"lo1":-89.0895,"lo2":-89.0444,"dy":0.0017,"dx":0.0017,"nx":28,"ny":28,"refTime":"2024-05-12T09:00:00:Z","depth":0,"parameterNumber":3,"parameterNumberName":"V-component_of_WINDS"},"data":[0,0,0,0,0,0,0,0,0,0,0,0,0,0,0,0,0,0,0,0,0,0,0,0,0,0,0,0,0,0,0,0,0,0,0,0,0,0,0,0,0,0,0,0,0,0,0,0,0,0,0,0,0,0,0,0,0,0,7.9646,7.9646,0,7.973,7.9731,7.9732,7.9649,7.9646,7.9642,7.9639,7.9719,7.9724,7.9729,0,0,0,0,0,0,0,0,0,0,0,0,0,7.9403,7.9408,7.9645,7.9647,7.9648,7.973,7.9731,7.9733,7.965,7.9646,7.9642,7.9638,7.9717,7.9723,7.9729,0,0,0,0,0,0,0,0,0,0,0,0,0,7.95,7.941,7.9645,7.9616,7.9615,7.973,7.9731,7.9733,7.965,7.9645,7.9641,7.9636,7.9715,7.9723,7.973,7.9876,0,0,7.9754,7.9757,0,0,0,0,0,0,0,0,7.9495,7.9509,7.962,7.9619,7.9617,7.9674,7.9675,7.9781,7.9652,7.9637,7.9639,7.9634,7.9707,7.9715,7.9742,7.988,7.9883,7.9754,7.9759,7.9762,7.9765,0,0,0,0,0,0,0,7.9488,7.9505,7.9679,7.9621,7.962,7.9596,7.9605,7.9695,7.9698,7.9637,7.9632,7.9643,7.9706,7.9735,7.9743,7.9884,7.9754,7.9761,7.9766,7.9769,8.0146,8.0151,0,0,0,0,0,0,7.9486,7.95,7.9676,7.9681,7.9543,7.9605,7.9614,7.9661,7.9697,7.9698,7.9647,7.9639,7.9724,7.9734,7.9746,7.9919,7.9762,7.977,7.9774,8.014,8.0147,8.0153,0,0,0,0,0,0,7.9481,7.9502,7.9673,7.9589,7.9609,7.9614,7.9667,7.9665,7.9694,7.9705,7.9704,7.9677,7.972,7.9735,7.9845,7.992,7.9773,7.978,8.0134,8.0142,8.015,8.0267,0,0,0,0,0,0,7.9474,7.9501,7.9559,7.9591,7.9614,7.9773,7.9672,7.967,7.9708,7.9698,7.9732,7.9733,7.9718,7.9834,7.9852,7.9928,7.9786,8.0127,8.0138,8.0147,8.0256,8.0278,8.0296,0,0,0,0,0,7.9466,7.9586,7.9562,7.9584,7.9686,7.9778,7.979,7.9772,7.9715,7.9771,7.9778,7.9732,7.9909,7.9846,7.9866,7.9945,8.0122,8.0135,8.0146,8.0247,8.0273,8.0296,0,0,0,0,0,0,7.9559,7.959,7.9563,7.9698,7.9737,7.9763,7.9834,7.9801,7.9854,7.9842,7.9815,7.9823,7.994,7.9953,7.9882,8.0088,8.0006,8.0023,8.0076,8.0101,8.012,8.0114,7.9793,0,0,0,0,0,7.9596,7.967,7.9692,7.9809,7.983,7.9829,7.9868,7.9851,7.9888,7.9903,7.9918,7.9954,8.0017,8.006,8.0119,8.0258,8.0263,8.0322,8.0342,8.0359,8.0373,8.0447,8.0474,8.0192,8.0192,8.0192,0,0,7.9672,7.9698,7.9746,7.9828,7.9856,7.9931,7.9843,7.9926,7.9981,7.9915,8.0021,8.0033,8.007,8.0196,8.0252,8.021,8.0452,8.0374,8.0387,8.0393,8.0462,8.0489,8.0513,8.02,8.0199,8.0198,0,0,7.9848,7.9876,7.9977,8.0007,8.0051,8.0049,8.0074,8.0106,8.0113,8.0219,8.0171,8.0234,8.0345,8.0374,8.0403,8.0592,8.0551,8.0611,8.0716,8.0789,8.0811,8.083,8.0897,8.0922,8.0626,8.0626,8.0626,0,7.9936,8.005,8.0032,8.0119,8.0156,8.0103,8.0203,8.0232,8.0292,8.0318,8.0272,8.041,8.0431,8.0563,8.0609,8.0634,8.066,8.0607,8.081,8.0829,8.0847,8.091,8.0936,8.0633,8.0632,8.0632,8.0631,0,8.0156,8.0236,8.0311,8.0374,8.0419,8.0512,8.0506,8.0554,8.0533,8.0536,8.0644,8.0669,8.0732,8.0761,8.0741,8.089,8.0863,8.0814,8.0731,8.0881,8.094,8.0964,8.0643,8.0641,8.0639,8.0637,0,0,8.0393,8.0445,8.0473,8.0501,8.0546,8.0606,8.0696,8.0761,8.0802,8.0844,8.0918,8.1014,8.0969,8.1002,8.0984,8.1048,8.1195,8.099,8.0991,8.1027,8.136,8.1397,8.1426,8.1169,8.1173,8.1177,8.1357,0,8.0571,8.0731,8.0717,8.0868,8.094,8.0891,8.0969,8.1004,8.1009,8.1069,8.1073,8.1142,8.1077,8.1097,8.1158,8.1165,8.1262,8.1151,8.1235,8.1238,8.1228,8.1457,8.1496,8.1665,8.138,8.1384,8.1387,0,8.08,8.0855,8.1013,8.1048,8.1077,8.1149,8.1207,8.1266,8.1303,8.1302,8.1341,8.1312,8.14,8.1316,8.1436,8.1362,8.1395,8.1403,8.1409,8.1416,8.1322,8.1469,8.1718,8.1744,8.1423,8.142,8.1417,0,8.0957,8.107,8.1179,8.1205,8.1247,8.1298,8.1318,8.1351,8.1391,8.144,8.1466,8.1524,8.1556,8.1601,8.1588,8.1528,8.1711,8.1626,8.1712,8.1712,8.1752,8.175,8.201,8.1774,8.1774,8.1773,8.1773,0,8.1158,8.1256,8.1251,8.1318,8.1427,8.1409,8.1516,8.1529,8.1559,8.1626,8.1586,8.1649,8.1628,8.169,8.168,8.1781,8.1795,8.1796,8.1792,8.18,8.18,8.1821,8.1809,8.178,8.1779,8.1777,8.1776,0,8.1351,8.1352,8.1468,8.15,8.151,8.1589,8.1614,8.1677,8.1679,8.1765,8.1784,8.1786,8.1857,8.1849,8.1927,8.192,8.2046,8.2027,8.2034,8.203,8.2117,8.2109,8.2399,8.2436,8.2177,8.2179,8.2182,0,8.1479,8.1555,8.1596,8.1639,8.1664,8.1734,8.1775,8.1759,8.1803,8.1852,8.1909,8.1976,8.2029,8.2144,8.2151,8.221,8.2193,8.2291,8.2202,8.2207,8.2195,8.2191,8.2198,8.2309,8.2312,8.2314,8.2316,0,8.1706,8.1703,8.1766,8.1829,8.188,8.1928,8.1972,8.2009,8.1997,8.2048,8.2122,8.2163,8.2244,8.2311,8.2367,8.2384,8.2348,8.2344,8.2367,8.2376,8.2377,8.2377,8.2082,8.2337,8.2335,8.2334,8.2333,8.2332,8.1871,8.1936,8.1976,8.2046,8.2078,8.212,8.2181,8.2192,8.2253,8.232,8.2306,8.2389,8.2423,8.2495,8.2518,8.2581,8.2545,8.2578,8.2586,8.2595,8.2605,8.2367,8.2591,8.259,8.2589,8.2589,8.2588,0,8.2096,8.2119,8.2185,8.2249,8.2304,8.2268,8.2314,8.2362,8.2437,8.2473,8.2527,8.2611,8.2676,8.2689,8.275,8.2798,8.2783,8.2814,8.2811,8.2815,8.2634,8.2608,8.2826,8.2826,8.2826,8.2825,8.2825,8.2825,8.222,8.2328,8.233,8.2452,8.2474,8.2557,8.2586,8.2624,8.2653,8.275,8.2805,8.2814,8.284,8.2903,8.2961,8.2963,8.2987,8.3025,8.3021,8.2851,8.2828,8.2805,8.2781,8.3031,8.3031,8.3196,8.3198,8.3199]}]]